Kuiper-00015

operational
NORAD ID: 63731 Int'l Des: 2025-088 Owner: KUIP Country: US Constellation: kuiper
LEOCIRCULAR

关于 Kuiper-00015

正在加载描述...

实时位置

正在加载3D地球...

即将过境

高度历史

Altitude vs Time

uPlot chart will show altitude changes over time

两行轨道根数

1 63731U 25088H 26034.50002314 .00040562 00000-0 49041-2 0 9990
2 63731 51.8975 270.3662 0008873 326.5711 36.7938 14.83293342 5565
Epoch: Feb 3, 2026 • Age: 5 hours

当前状态

高度 614.8 km
速度 7.56 km/s
星下点 -4.39°S, 120.01°W
发射日期 Apr 28, 2025
运行时间 0.7 years
类型 internet

技术详情

分类 Payload
质量 490.00 kg
干质量 490.00 kg
总质量 490.00 kg
长度 1.80 m
直径 0.70 m
跨度 5.00 m
形状 Box + 2 pan
制造商 KUIP
平台类型 Kuiper
阶段状态 In Orbit
所有者/国家 KUIP/US

大型星座

Loading constellations...